230P/LINEAR (2022)

Japanese version
Home page
Updated on December 1, 2021

---------------------------------------------------------------------

* Profile

* Pictures

* Orbital Elements

Epoch 2022 Mar. 2.0 TT = JDT 2459640.5
T 2022 Mar. 19.33175 TT                                 Rudenko
q   1.5687775            (2000.0)            P               Q
n   0.15373477     Peri.  313.42971     +0.46856247     -0.84579637
a   3.4510770      Node   106.98449     +0.86785988     +0.38671904
e   0.5454238      Incl.   15.47021     +0.16513158     +0.36752807
P   6.41
From 1317 observations 1997 Jan. 10-2021 July 16, mean residual 0".6.

* Magnitudes Graph

        H = 14.5  G = 0.15                [    ,-260]  (             - 2021 July  2)
        m1 = 13.2 + 5 log d + 10.0 log r  [-260, 290]  (2021 July  2 - 2023 Jan.  3)
        H = 14.5  G = 0.15                [ 290,    ]  (2023 Jan.  3 -             )

---------------------------------------------------------------------

The orbital elements are published on M.P.E.C. 2021-O56.
The magnitudes graphs are made with Comet for Windows.

---------------------------------------------------------------------

Copyright(C) Seiichi Yoshida (comet@aerith.net). All rights reserved.